Theta_e
312 312 308 306 306 306 308 309 313 307 306 310 307 310 308 307 308 308 309 308 309 311 310 311 311 310 310 308 309 311 309 311 314 311 308 308 310 312 311 311 309 310 309 310
311 312 311 306 308 308 308 309 309 308 305 314 311 308 308 308 309 309 310 310 309 308 310 311 310 310 308 308 309 310 309 309 309 306 308 308 311 311 311 307 308 311 309 310
311 312 312 311 306 307 307 306 315 308 307 305 309 309 309 310 308 308 308 309 308 309 310 309 310 310 308 307 309 308 308 308 308 308 306 310 311 310 310 311 313 309 309 309
310 311 312 312 310 306 307 306 307 305 312 309 307 308 308 309 310 308 308 309 309 309 310 310 310 309 309 308 310 308 310 310 308 308 307 306 307 308 310 311 311 309 309 309
310 310 311 312 312 310 307 307 307 306 305 304 307 306 309 308 309 309 308 309 308 309 309 309 310 309 310 311 309 310 308 310 308 309 308 308 308 308 308 308 309 309 309 310
309 310 310 311 311 312 311 308 306 306 302 305 305 307 308 308 308 307 307 307 309 309 308 306 306 305 306 307 310 310 310 310 310 310 306 307 308 307 307 307 307 308 309 309
309 309 310 310 310 311 311 311 308 305 308 305 305 306 307 307 307 307 306 306 308 306 306 306 304 304 304 306 306 307 309 309 309 311 308 311 305 304 306 307 307 307 307 307
309 309 309 310 310 310 310 310 310 309 308 303 303 304 306 304 304 306 306 306 306 306 305 307 306 303 304 304 302 305 305 309 309 310 308 308 305 303 305 306 307 305 306 306
309 309 309 309 309 309 309 309 309 310 310 310 303 304 304 307 305 303 304 305 305 306 305 306 306 307 304 306 305 302 304 305 308 306 308 311 305 304 303 304 308 304 304 304
309 309 309 309 309 309 309 309 308 309 309 309 305 306 307 303 302 305 302 305 305 305 307 307 306 307 303 305 306 307 306 307 309 308 308 309 306 304 303 310 308 303 303 302
309 309 309 308 308 309 308 307 307 307 307 308 307 307 305 303 304 308 302 306 305 305 307 307 306 306 305 304 303 306 307 308 308 308 309 310 304 304 307 304 303 301 301 300
309 309 309 309 308 308 308 307 306 305 305 307 307 307 306 306 305 304 304 303 303 306 306 304 304 307 304 306 309 302 306 308 309 309 310 305 303 304 303 301 300 300 299 299
309 309 309 309 309 308 308 307 305 304 304 305 304 305 306 305 305 304 304 303 303 304 304 304 304 307 305 308 306 305 303 303 306 305 305 305 305 303 300 300 300 300 300 300
309 309 309 308 309 308 306 305 303 303 303 303 303 303 302 303 303 304 303 303 303 303 304 305 306 306 303 306 305 304 304 302 304 304 304 302 302 301 300 299 298 298 298 298
309 309 309 308 307 306 304 302 302 303 303 304 304 303 302 303 303 302 302 302 302 302 303 304 306 303 303 302 301 304 303 306 306 307 302 304 303 299 298 297 296 296 296 296
308 308 308 307 305 303 301 303 303 303 302 302 304 301 302 302 302 301 301 301 301 301 302 302 301 301 302 305 305 303 302 303 303 304 302 301 299 298 296 295 294 294 294 294
309 308 307 305 303 301 301 302 302 302 302 303 303 302 300 299 299 298 298 299 300 300 301 300 300 300 301 302 305 303 301 301 301 299 299 297 296 295 294 294 294 293 293 293
309 306 303 301 300 300 299 299 300 301 301 301 302 302 299 298 297 297 298 298 298 299 299 298 300 299 299 303 302 301 301 298 295 295 295 295 295 295 294 293 293 293 292 292
303 301 299 299 298 298 298 297 298 299 299 300 300 301 302 297 297 297 297 297 298 297 299 299 299 300 301 302 301 300 298 296 296 296 295 295 294 294 293 293 292 292 291 291
299 298 298 296 296 297 296 297 297 297 298 298 298 298 300 297 296 296 297 296 298 300 298 297 300 301 300 300 300 299 298 296 295 294 294 293 293 292 292 292 292 291 291 291
298 296 296 296 296 296 296 296 296 297 297 297 297 297 298 297 299 300 296 299 298 300 299 299 300 299 297 297 298 295 295 295 293 292 292 292 292 292 291 291 291 291 290 290
296 295 295 296 295 295 295 295 295 296 297 297 297 296 296 297 297 299 297 300 298 300 296 298 298 298 296 297 298 297 297 295 294 292 292 292 292 291 291 291 291 290 290 291
294 295 295 294 293 295 294 293 295 296 295 295 295 296 296 296 297 298 299 300 299 295 298 297 297 295 296 295 295 295 295 293 292 292 292 292 291 291 291 291 290 290 291 292
294 295 294 293 292 292 293 292 293 295 296 295 295 295 295 295 296 298 299 297 295 297 297 297 297 295 296 296 296 296 294 292 292 292 292 292 291 291 291 290 290 290 291 293
294 293 293 290 290 290 291 292 294 295 295 295 295 294 294 295 296 296 298 297 296 296 297 296 295 296 296 296 296 295 293 292 292 292 292 292 291 291 291 290 290 291 292 292
293 292 290 288 290 289 290 291 293 295 296 296 296 296 296 297 296 296 297 298 296 296 296 296 297 297 297 297 295 294 293 293 293 292 292 292 291 291 291 290 291 292 291 291
291 291 291 291 291 291 292 293 294 295 296 297 295 296 295 290 295 297 297 296 295 294 294 294 295 295 295 294 294 293 293 293 292 292 292 292 291 291 291 291 292 291 291 291
Wind_Speed
23 23 18 13 6 4 3 1 1 10 4 1 4 3 3 2 2 2 1 2 2 3 4 3 2 3 1 6 5 3 2 1 3 1 2 1 2 2 5 3 3 1 3 7
20 22 20 15 10 6 3 2 2 8 4 3 3 3 3 2 2 1 1 2 0 1 3 2 2 2 2 6 5 4 5 2 3 3 3 3 5 6 5 2 0 8 4 3
18 19 20 17 13 9 5 2 1 6 8 9 5 3 2 2 1 2 2 2 1 1 2 2 4 4 2 3 2 3 4 3 5 3 3 3 5 9 12 11 5 6 13 18
16 18 18 18 14 11 4 4 3 2 2 4 6 3 2 2 1 2 2 1 1 2 3 2 2 2 3 2 4 2 1 3 2 8 9 8 11 12 13 17 17 10 7 14
12 15 16 16 16 10 9 3 3 6 3 3 2 2 2 3 2 2 1 1 2 1 0 1 3 5 4 2 4 4 1 1 1 4 3 8 12 15 16 19 20 21 23 27
9 11 12 14 14 13 7 4 4 4 1 3 2 1 3 5 5 1 1 3 2 1 1 1 2 1 3 1 4 8 3 2 1 4 1 9 12 15 19 8 9 13 14 8
6 8 10 11 11 12 10 7 3 1 2 2 2 3 2 3 3 2 2 4 3 4 5 1 2 3 4 2 2 2 4 3 2 4 7 4 3 3 6 11 6 14 9 11
5 7 8 9 10 10 10 9 4 1 2 1 4 6 4 3 2 3 3 5 4 6 3 3 3 2 2 2 4 4 2 5 3 3 3 9 2 4 6 5 3 1 5 7
4 6 7 8 8 8 8 8 7 2 2 3 3 3 3 3 3 4 2 3 6 6 2 2 2 2 1 3 4 4 3 2 5 2 3 4 4 2 4 1 5 6 3 13
4 4 5 6 7 7 7 7 8 3 2 4 6 3 2 4 2 1 3 4 4 5 3 3 4 3 1 3 3 5 4 4 11 8 5 8 2 1 2 4 3 11 14 15
7 4 3 4 5 7 8 7 7 5 3 5 7 7 5 5 4 2 5 3 3 2 4 3 3 3 3 2 4 6 8 8 5 5 6 7 1 4 3 3 7 13 16 15
8 5 4 4 6 7 7 8 8 7 5 5 7 10 10 10 8 5 8 1 2 4 2 2 1 3 3 3 3 4 5 6 5 9 5 2 6 2 1 6 9 10 11 12
10 7 6 5 6 7 7 9 9 8 3 6 5 7 10 12 15 14 6 4 6 3 4 2 1 5 2 3 5 3 5 7 3 3 5 9 10 5 4 5 7 11 11 13
13 10 8 7 7 9 9 9 10 7 1 1 2 5 4 5 6 13 18 10 6 5 5 2 2 2 3 2 3 4 1 8 5 6 6 1 8 3 4 7 10 13 13 15
15 13 11 9 7 7 8 10 10 6 3 3 3 7 10 10 12 12 11 16 15 6 3 3 3 2 3 2 2 5 8 7 5 7 1 1 2 5 8 11 14 16 19 22
16 15 13 10 8 6 5 2 0 6 5 3 1 3 4 5 5 5 8 12 10 7 5 4 4 5 5 3 3 4 3 4 6 4 5 7 4 3 8 11 15 17 19 21
21 17 14 10 8 7 4 3 5 5 1 2 4 1 1 2 3 3 3 7 5 6 4 4 2 3 5 2 6 4 5 6 6 6 5 6 4 2 8 13 16 19 21 23
20 16 13 10 9 9 10 11 11 8 4 3 2 2 2 5 3 2 5 5 5 5 2 2 3 2 3 5 10 8 4 7 8 8 8 7 3 6 10 15 18 22 26 30
19 16 13 8 6 5 7 9 6 9 6 3 4 3 1 5 3 3 3 3 2 3 4 4 5 3 6 7 8 4 13 10 9 5 3 6 11 16 21 22 24 24 30 33
23 17 8 5 5 7 7 3 4 5 5 4 3 4 1 6 4 2 3 2 2 2 3 3 3 5 14 10 6 11 13 10 6 4 8 13 17 21 24 25 27 30 35 38
19 8 7 10 11 6 4 3 3 4 3 6 5 6 2 3 2 2 4 2 2 3 2 3 3 4 5 12 16 18 14 4 2 7 11 12 14 19 24 29 31 33 36 38
13 7 13 11 5 3 2 2 2 4 4 5 4 4 6 3 5 2 3 2 2 4 6 3 3 4 6 8 16 27 8 6 10 14 17 19 21 24 27 32 37 39 41 44
16 6 5 6 4 4 7 8 4 3 7 7 6 4 5 4 5 3 3 4 3 4 3 4 5 3 19 19 17 12 5 9 15 17 20 23 26 28 31 36 38 42 44 46
5 6 5 5 4 5 5 4 3 4 6 13 11 4 4 3 3 2 3 2 3 3 4 6 3 20 27 18 12 5 13 19 22 23 25 27 29 32 35 38 41 43 44 46
4 5 4 5 3 2 4 6 3 6 8 12 7 3 4 3 2 3 3 4 5 5 5 3 5 22 25 16 7 16 26 25 28 29 31 29 30 33 38 39 41 42 42 44
3 3 3 2 2 3 5 8 7 8 9 7 3 3 2 5 3 6 8 4 7 3 3 7 7 8 23 16 20 32 32 34 37 37 32 29 31 34 37 40 41 38 41 42
2 3 8 8 1 3 8 8 7 11 10 3 3 4 9 1 4 4 4 5 3 5 6 12 15 17 24 30 35 35 39 43 43 35 30 31 34 36 38 40 37 40 42 44
Wind_Direction
20 21 25 33 41 59 47 112 118 6 22 71 54 56 60 107 145 164 155 108 94 146 162 133 147 163 85 162 163 138 89 106 168 154 97 327 275 237 221 246 182 226 314 273
25 22 25 30 38 33 30 70 75 20 80 79 75 97 93 101 135 43 51 113 149 147 140 135 136 137 20 159 169 169 171 189 169 177 172 186 227 196 206 125 81 214 242 245
26 28 24 25 30 29 33 56 56 45 61 80 102 120 101 110 46 113 114 109 61 113 111 25 153 143 135 180 141 150 172 199 248 263 82 113 202 202 207 208 211 238 233 272
22 28 28 26 23 27 53 60 74 48 36 55 99 118 117 117 116 39 25 108 191 153 141 136 154 146 146 141 154 108 265 264 233 272 262 242 256 245 207 211 224 238 272 276
18 24 28 29 25 25 38 81 136 90 75 26 38 6 143 151 150 181 141 273 151 180 168 307 212 178 202 199 156 175 143 276 343 280 293 243 256 250 241 238 247 258 265 276
17 22 29 31 32 37 36 51 93 125 150 141 203 125 169 199 168 188 170 160 139 215 307 282 11 139 59 179 184 185 194 204 250 262 297 294 268 253 212 214 230 237 245 255
14 20 27 34 37 40 42 43 72 140 126 203 138 161 167 174 202 147 175 178 176 168 141 92 70 66 62 145 104 183 172 187 239 286 309 248 62 88 175 207 237 217 251 274
346 7 18 24 30 36 39 40 38 53 116 159 171 179 169 154 213 208 199 196 176 161 179 199 196 167 170 103 37 247 265 202 246 277 278 302 190 180 162 193 96 18 235 295
309 340 358 10 19 25 27 33 32 39 151 202 158 160 184 177 164 157 165 178 181 178 159 196 250 243 181 175 157 48 172 316 236 197 254 259 52 98 156 185 176 45 299 325
259 304 334 353 6 16 21 20 16 7 302 222 179 187 185 165 144 139 160 168 171 186 196 194 200 215 158 222 206 162 149 199 223 228 273 284 5 168 162 255 56 342 332 324
228 259 302 340 355 3 9 8 359 359 297 258 232 223 190 179 183 208 152 157 179 132 201 217 199 220 194 213 166 177 180 166 188 193 231 275 110 141 271 5 319 328 320 320
220 222 259 302 328 340 350 352 344 327 285 266 232 226 235 235 217 195 190 294 161 191 169 219 144 211 193 226 257 202 221 213 182 205 214 131 173 80 66 325 306 317 316 327
228 234 251 283 309 323 330 336 333 335 310 284 266 247 240 246 235 221 194 220 210 200 200 159 21 253 169 226 239 254 230 189 232 187 179 215 244 149 345 14 358 357 357 353
236 241 248 262 285 301 312 317 316 318 277 305 292 234 237 231 224 223 223 225 197 193 183 187 211 241 199 249 302 247 351 159 208 252 264 244 165 78 30 20 9 359 359 355
231 244 249 259 268 283 298 302 302 291 225 178 256 268 262 257 258 237 228 226 222 206 178 179 216 203 209 226 276 239 209 228 235 272 106 348 327 11 18 10 11 5 358 355
231 240 243 248 262 274 292 275 189 115 77 320 283 258 255 259 251 232 221 224 214 200 193 212 232 192 188 228 246 256 254 245 209 222 230 272 298 79 15 14 5 1 358 354
230 237 238 235 244 246 226 244 184 186 352 297 302 280 220 184 162 161 172 192 204 194 200 227 243 216 214 236 237 198 136 194 208 206 172 132 93 69 17 358 349 344 340 336
220 214 215 217 224 239 236 233 219 217 222 224 259 271 244 194 184 174 173 168 188 211 233 218 214 203 218 253 246 249 232 169 133 108 100 101 56 351 339 334 333 329 331 333
196 190 178 184 226 224 225 216 203 192 208 200 204 218 229 169 158 141 155 182 198 198 225 212 187 192 225 234 234 223 178 161 139 105 76 349 337 333 335 333 332 326 325 327
178 171 168 178 190 157 149 153 188 184 207 228 248 215 188 168 169 155 147 175 223 230 205 186 230 253 237 225 170 170 169 149 123 36 352 342 332 332 329 327 325 323 324 324
160 153 160 157 148 146 154 167 181 188 235 216 225 205 211 197 186 160 200 191 190 251 171 227 235 259 214 188 198 155 140 130 15 344 338 334 322 319 321 323 325 322 319 315
151 171 139 147 161 147 172 191 236 213 230 188 177 179 187 208 197 195 196 235 183 254 150 234 250 243 200 207 202 184 201 278 304 332 332 330 326 325 321 321 321 321 321 321
145 165 160 167 158 181 195 187 203 209 184 184 174 167 171 185 190 202 192 227 230 141 218 235 234 214 158 143 142 159 218 314 324 321 321 323 326 327 325 321 319 322 322 323
155 170 183 207 180 226 195 180 178 168 163 167 173 141 165 171 169 188 228 178 159 239 234 239 226 190 177 177 187 234 315 324 316 316 323 325 325 322 320 321 323 321 318 321
171 178 219 201 210 184 167 191 183 166 165 154 150 137 170 164 218 207 198 198 236 227 234 247 280 196 190 193 251 310 326 321 320 321 321 316 316 317 317 319 319 316 317 320
216 200 150 169 170 196 188 197 199 167 155 150 138 142 193 224 214 199 210 216 217 238 223 281 301 233 210 243 294 309 312 312 314 316 316 307 310 314 315 317 317 318 322 318
178 244 228 204 276 163 190 187 174 184 168 190 165 196 220 128 223 217 203 216 220 205 295 307 292 274 275 283 289 301 306 306 308 309 305 307 312 312 312 313 319 320 320 319